Flag Weather past 2 weeks in Kuopio, Finland

Now
41 °F

Light rain. Overcast.


Feels Like: 35 °F
Forecast: 30 / 36 °F
Wind: 9 mph from West

Location: Kuopio Airport

Current Time: Oct 30, 2014 at 6:25:07 PM

Latest Report: Oct 30, 2014 at 5:50 PM


Visibility: N/A

Pressure: 29.83 "Hg

Humidity: 76%

Dew point: 34 °F

Location of KuopioLocation

Historic Weather in Kuopio — Graph

°F

Kuopio temperature yesterday

Maximum temperature yesterday: 55 °F (at 1:50 AM)
Minimum temperature yesterday: 41 °F (at 6:20 PM)
Average temperature yesterday: 49 °F

Past Weeks' High & Low Weather Summary

 TemperatureHumidityPressure
High55 °F (Oct 28, 7:20 PM)100% (Oct 18, 1:20 AM)30.60 "Hg (Oct 18, 1:20 AM)
Low18 °F (Oct 23, 5:50 AM)54% (Oct 23, 1:50 PM)29.36 "Hg (Oct 20, 4:20 AM)
Average34 °F83%29.97 "Hg
* Reported Oct 15 6:20 PM — Oct 30 5:20 PM, Kuopio, Weather by CustomWeather, © 2014

Note: Actual official high and low records may vary slightly from our data, if they occured in-between our weather recording intervals... More about our weather records

Advertising

Kuopio weather history for previous 24 hours

 ConditionsComfort  
Time TempWeatherWind HumidityBarometerVisibility
5:20 PM
Oct 30
41 °FOvercast.10 mph76%29.83 "HgN/A
4:50 PM41 °FOvercast.9 mph76%29.83 "HgN/A
4:20 PM41 °FPassing clouds.14 mph76%29.83 "HgN/A
3:50 PM43 °FPartly sunny.10 mph71%29.80 "HgN/A
3:20 PM41 °FScattered clouds.14 mph76%29.80 "HgN/A
2:50 PM43 °FPassing clouds.13 mph71%29.80 "HgN/A
2:20 PM43 °FScattered clouds.12 mph71%29.80 "HgN/A
1:50 PM43 °FPassing clouds.14 mph71%29.80 "HgN/A
1:20 PM41 °FPassing clouds.16 mph76%29.80 "HgN/A
12:50 PM41 °FPassing clouds.15 mph81%29.80 "HgN/A
12:20 PM41 °FScattered clouds.13 mph81%29.83 "HgN/A
11:50 AM41 °FPartly sunny.14 mph76%29.83 "HgN/A
11:20 AM41 °FPartly sunny.12 mph81%29.83 "HgN/A
10:50 AM41 °FPartly sunny.14 mph81%29.83 "HgN/A
10:20 AM39 °FPartly sunny.13 mph87%29.83 "HgN/A
9:50 AM39 °FPartly sunny.13 mph87%29.83 "HgN/A
9:20 AM39 °FPartly sunny.10 mph87%29.83 "HgN/A
8:50 AM39 °FPartly sunny.12 mph87%29.83 "HgN/A
8:20 AM39 °FPartly sunny.12 mph87%29.83 "HgN/A
7:50 AM39 °FOvercast.12 mph87%29.80 "HgN/A
7:20 AM39 °FPassing clouds.14 mph87%29.80 "HgN/A
6:50 AM39 °FPassing clouds.16 mph87%29.80 "HgN/A
6:20 AM39 °FOvercast.12 mph87%29.80 "HgN/A
5:50 AM39 °FPassing clouds.10 mph87%29.80 "HgN/A
5:20 AM39 °FPassing clouds.12 mph87%29.77 "HgN/A
4:50 AM39 °FPassing clouds.14 mph87%29.77 "HgN/A
4:20 AM39 °FPassing clouds.13 mph87%29.77 "HgN/A
3:50 AM39 °FPassing clouds.12 mph87%29.77 "HgN/A
3:20 AM39 °FPassing clouds.12 mph87%29.77 "HgN/A
2:50 AM39 °FClear.13 mph87%29.77 "Hg10 mi
2:20 AM39 °FPassing clouds.14 mph87%29.74 "HgN/A
1:50 AM39 °FClear.10 mph87%29.74 "Hg10 mi
1:20 AM39 °FClear.13 mph87%29.74 "Hg10 mi
12:50 AM39 °FPassing clouds.12 mph87%29.74 "HgN/A
12:20 AM39 °FPassing clouds.12 mph87%29.71 "HgN/A
11:50 PM
Oct 29
41 °FPassing clouds.14 mph87%29.71 "HgN/A
11:20 PM41 °FPassing clouds.10 mph81%29.68 "HgN/A
10:50 PM41 °FOvercast.13 mph87%29.68 "HgN/A
10:20 PM41 °FPassing clouds.12 mph87%29.65 "HgN/A
9:50 PM41 °FPassing clouds.13 mph87%29.65 "HgN/A
9:20 PM41 °FPassing clouds.10 mph87%29.62 "HgN/A
8:50 PM41 °FPassing clouds.13 mph87%29.59 "HgN/A
8:20 PM41 °FPassing clouds.12 mph93%29.56 "HgN/A
7:50 PM41 °FPartly cloudy.12 mph93%29.56 "HgN/A
7:20 PM41 °FScattered showers. Partly cloudy.7 mph93%29.53 "HgN/A
6:50 PM41 °FRain. Mostly cloudy.12 mph93%29.53 "HgN/A
6:20 PM41 °FLight rain. Mostly cloudy.15 mph93%29.50 "HgN/A
Weather by CustomWeather, © 2014

See weather overviewHow to use our weather pages